Погода в Нижнем Цасучее

Россия / Забайкальский край     50°30′41″N   115°07′46″E
темп.,
°C
ветер,
м/с
пор.,
м/с
влажн.,
%
обл.,
%
осадки,
мм/ч
давл.,
гПа
погр.,
м
21 апреля, ср
ср2100:00+10ююз33420 0.0 100429
03:00+9ююв44420 0.0 100350
06:00+8ю33443 0.0 100322
09:00+14ююв46270 0.0 1002307
12:00+22ююз45160 0.0 1000869
15:00+25сз47104 0.0 9983521
18:00+21с882080 0.0 10001184
21:00+14ссз8143299 0.0 1004650
22 апреля, чт
чт2200:00+11с81345100 0.0 1007694
03:00+8с81348100 0.0 1010678
06:00+6ссз81354100 0.0 1013716
09:00+6с91243100 0.0 1016830
12:00+10с91026100 0.0 10171215
15:00+12ссв8920100 0.0 10171645
18:00+12ссв88220 0.0 10181656
21:00+8ссв712211 0.0 1023581
23 апреля, пт
пт2300:00+5ссв8152581 0.0 1026591
03:00+3ссв7123794 0.1 1030614
06:00+2ссв61145100 0.3 1033678
09:00+3ссв7941100 0.3 1036791
12:00+5с6830100 0.0 10371240
15:00+8с671678 0.0 10351719
18:00+8с671283 0.0 10351830
21:00+4св231790 0.0 103728
24 апреля, сб
сб2400:00+3всв1121100 0.0 103811
03:00+2з1122100 0.0 103910
06:00+2зсз2223100 0.0 103910
09:00+5зсз1218100 0.0 1038286
12:00+9сз231298 0.0 10361423
15:00+11сз231019 0.0 10321664
18:00+12зсз2210100 0.0 10301643
21:00+7юз111518 0.0 103010
25 апреля, вс
вс2500:00+5ю3317100 0.0 103021
03:00+4ю231794 0.0 102817
06:00+4ююв3318100 0.0 102630
09:00+9ю4617100 0.0 1024354
12:00+13ю4513100 0.0 10211145
15:00+14ю5615100 0.0 10171341
18:00+15ю5715100 0.0 10141444
21:00+10юв4619100 0.0 101392